CW8633 Weather Reports


Display with metric or nautical units.
time (UTC)temp
F
wind
direction
speed
MPH
gust
MPH
rain 1hr
in
rain 24hr
in
rain mn
in
humidity
%
barometer
mb
20260507100730 46 106 2.0 4.0 0.00 0.00 0.00 67 1016.1
20260507095723 46 110 1.0 3.0 0.00 0.00 0.00 67 1016.2
20260507094737 45 110 2.0 4.0 0.00 0.00 0.00 67 1016.2
20260507093725 45 110 2.0 3.0 0.00 0.00 0.00 66 1016.2
20260507092733 46 110 1.0 3.0 0.00 0.00 0.00 64 1016.4
20260507091742 46 111 0.0 2.0 0.00 0.00 0.00 65 1016.4
20260507090730 46 111 0.0 3.0 0.00 0.00 0.00 67 1016.3
20260507085724 46 111 1.0 2.0 0.00 0.00 0.00 67 1016.4
20260507084731 46 111 1.0 2.0 0.00 0.00 0.00 67 1016.3
20260507083739 45 111 3.0 4.0 0.00 0.00 0.00 67 1016.3
20260507082731 46 187 2.0 4.0 0.00 0.00 0.00 67 1016.3
20260507081757 46 234 0.0 3.0 0.00 0.00 0.00 65 1016.4
20260507080724 47 113 0.0 1.0 0.00 0.00 0.00 64 1016.5
20260507075735 47 113 0.0 3.0 0.00 0.00 0.00 63 1016.4
20260507074725 47 113 3.0 4.0 0.00 0.00 0.00 62 1016.5
20260507073732 47 113 1.0 2.0 0.00 0.00 0.00 62 1016.7
20260507072736 47 113 0.0 3.0 0.00 0.00 0.00 63 1016.9
20260507071743 47 113 1.0 3.0 0.00 0.00 0.00 63 1016.9
20260507070750 47 113 2.0 3.0 0.00 0.00 0.00 63 1016.8
20260507065729 48 113 0.0 4.0 0.00 0.00 0.00 65 1017.0
20260507064735 47 114 3.0 6.0 0.00 0.00 0.00 62 1017.0
20260507063800 47 123 1.0 4.0 0.00 0.00 0.00 64 1017.0
20260507062747 47 123 1.0 3.0 0.00 0.00 0.00 64 1016.9
20260507061734 47 123 0.0 3.0 0.00 0.00 0.00 66 1017.0
20260507060739 47 123 1.0 4.0 0.00 0.00 0.00 64 1017.1
20260507055734 47 142 2.0 3.0 0.00 0.00 0.00 65 1017.1
20260507054759 47 142 2.0 3.0 0.00 0.00 0.00 64 1017.1
20260507053724 48 142 2.0 3.0 0.00 0.00 0.00 61 1017.1
20260507052749 49 142 0.0 2.0 0.00 0.00 0.00 60 1017.2
20260507051734 49 142 0.0 2.0 0.00 0.00 0.00 59 1017.2
20260507050724 48 142 1.0 4.0 0.00 0.00 0.00 62 1017.3
20260507045756 49 142 3.0 4.0 0.00 0.00 0.00 63 1017.3
20260507044802 49 156 2.0 3.0 0.00 0.00 0.00 62 1017.3
20260507043727 49 156 2.0 3.0 0.00 0.00 0.00 61 1017.2
20260507042734 50 173 1.0 3.0 0.00 0.00 0.00 62 1017.3
20260507041724 50 173 0.0 2.0 0.00 0.00 0.00 59 1017.2
20260507040729 50 173 2.0 3.0 0.00 0.00 0.00 58 1017.0
20260507035742 51 173 0.0 2.0 0.00 0.00 0.00 56 1017.0
20260507034730 52 173 0.0 3.0 0.00 0.00 0.00 54 1017.0
20260507033740 52 173 3.0 3.0 0.00 0.00 0.00 51 1017.0
20260507032728 54 198 2.0 4.0 0.00 0.00 0.00 50 1016.8
20260507031738 54 257 4.0 9.0 0.00 0.00 0.00 50 1016.6
20260507030725 55 212 1.0 4.0 0.00 0.00 0.00 48 1016.4
20260507025725 56 159 2.0 8.0 0.00 0.00 0.00 44 1016.4
20260507024731 56 143 3.0 5.0 0.00 0.00 0.00 45 1016.5
20260507023737 56 175 2.0 4.0 0.00 0.00 0.00 45 1016.4
20260507022803 57 190 1.0 3.0 0.00 0.00 0.00 46 1016.4
20260507021728 58 190 4.0 7.0 0.00 0.00 0.00 46 1016.2
20260507020741 59 225 3.0 7.0 0.00 0.00 0.00 47 1016.2
20260507015737 59 209 6.0 10.0 0.00 0.00 0.00 43 1015.9
20260507014725 60 219 4.0 7.0 0.00 0.00 0.00 47 1016.1
20260507013732 61 229 5.0 11.0 0.00 0.00 0.00 44 1016.0
20260507012723 62 217 6.0 12.0 0.00 0.00 0.00 39 1016.2
20260507011731 62 249 6.0 10.0 0.00 0.00 0.00 39 1016.1
20260507010740 63 229 4.0 7.0 0.00 0.00 0.00 39 1016.1
20260507005734 63 211 5.0 8.0 0.00 0.00 0.00 36 1016.0
20260507004727 63 207 5.0 7.0 0.00 0.00 0.00 34 1016.0
20260507003733 63 196 5.0 7.0 0.00 0.00 0.00 33 1016.1
20260507002738 63 209 4.0 8.0 0.00 0.00 0.00 33 1016.1
20260507001731 63 201 4.0 8.0 0.00 0.00 0.00 33 1016.0
20260507000733 64 202 5.0 7.0 0.00 0.00 0.00 30 1016.1
20260506235727 64 250 5.0 8.0 0.00 0.00 0.00 32 1016.0
20260506234735 63 163 4.0 7.0 0.00 0.00 0.00 32 1015.9
20260506233723 63 199 3.0 6.0 0.00 0.00 0.00 31 1016.0
20260506232736 63 233 3.0 7.0 0.00 0.00 0.00 32 1016.1
20260506231724 63 163 2.0 5.0 0.00 0.00 0.00 34 1016.3
20260506230730 63 211 1.0 8.0 0.00 0.00 0.00 35 1016.2
20260506225723 62 163 3.0 8.0 0.00 0.00 0.00 33 1016.3
20260506224733 62 224 3.0 5.0 0.00 0.00 0.00 31 1016.4
20260506223738 62 203 2.0 5.0 0.00 0.00 0.00 29 1016.6
20260506222722 62 194 2.0 7.0 0.00 0.00 0.00 28 1016.8
20260506221729 62 214 2.0 7.0 0.00 0.00 0.00 29 1016.9
20260506220738 62 207 4.0 8.0 0.00 0.00 0.00 29 1016.9
20260506215730 62 36 3.0 9.0 0.00 0.00 0.00 29 1017.0
20260506214738 61 256 4.0 8.0 0.00 0.00 0.00 33 1017.0
20260506213725 61 221 6.0 10.0 0.00 0.00 0.00 34 1017.0
20260506212735 60 248 5.0 9.0 0.00 0.00 0.00 32 1017.3
20260506211724 61 246 3.0 8.0 0.00 0.00 0.00 32 1017.3
20260506210732 61 286 4.0 7.0 0.00 0.00 0.00 34 1017.4
20260506205726 59 243 4.0 7.0 0.00 0.00 0.00 36 1017.4
20260506204733 59 184 4.0 9.0 0.00 0.00 0.00 33 1017.5
20260506203724 59 197 3.0 9.0 0.00 0.00 0.00 35 1017.5
20260506202728 58 264 1.0 9.0 0.00 0.00 0.00 32 1017.5
20260506201736 58 234 4.0 10.0 0.00 0.00 0.00 33 1017.5
20260506200725 59 257 4.0 8.0 0.00 0.00 0.00 33 1017.7
20260506195802 59 108 3.0 4.0 0.00 0.00 0.00 33 1017.6
20260506194750 59 244 6.0 8.0 0.00 0.00 0.00 33 1017.7
20260506193738 59 275 2.0 11.0 0.00 0.00 0.00 34 1017.8
20260506192726 58 61 4.0 10.0 0.00 0.00 0.00 34 1017.9
20260506191739 57 46 4.0 10.0 0.00 0.00 0.00 34 1017.9
20260506190727 57 98 3.0 7.0 0.00 0.00 0.00 35 1018.0
20260506185740 55 346 3.0 6.0 0.00 0.00 0.00 38 1018.1
20260506184730 55 228 4.0 9.0 0.00 0.00 0.00 35 1018.3
20260506183740 54 73 3.0 9.0 0.00 0.00 0.00 34 1018.4
20260506182746 54 84 5.0 12.0 0.00 0.00 0.00 33 1018.5
20260506181731 54 5 3.0 9.0 0.00 0.00 0.00 35 1018.5
20260506180738 53 24 2.0 5.0 0.00 0.00 0.00 39 1018.7
20260506175751 53 59 3.0 8.0 0.00 0.05 0.00 38 1018.7
20260506174735 52 308 2.0 6.0 0.00 0.05 0.00 39 1018.8
20260506173747 51 267 1.0 8.0 0.00 0.05 0.00 41 1018.8
20260506172735 51 248 2.0 4.0 0.00 0.05 0.00 40 1018.8
20260506171723 50 281 3.0 7.0 0.00 0.05 0.00 44 1018.8
20260506170751 49 221 3.0 8.0 0.00 0.05 0.00 45 1018.7
20260506165723 49 300 1.0 6.0 0.00 0.07 0.00 44 1018.7
20260506164734 49 213 3.0 6.0 0.00 0.07 0.00 45 1018.6
20260506163801 49 250 3.0 6.0 0.00 0.07 0.00 46 1018.6
20260506162729 48 136 3.0 5.0 0.00 0.07 0.00 45 1018.5
20260506161736 48 159 1.0 5.0 0.00 0.07 0.00 47 1018.4
20260506160729 47 130 2.0 5.0 0.00 0.07 0.00 49 1018.5
20260506155741 46 192 2.0 7.0 0.00 0.08 0.00 49 1018.3
20260506154727 46 176 3.0 8.0 0.00 0.08 0.00 50 1018.3
20260506153731 46 172 2.0 5.0 0.00 0.08 0.00 51 1018.1
20260506152723 45 184 4.0 7.0 0.00 0.08 0.00 49 1018.0
20260506151731 45 144 2.0 4.0 0.00 0.08 0.00 48 1018.0
20260506150739 44 145 3.0 5.0 0.00 0.08 0.00 52 1017.9
20260506145730 44 157 5.0 7.0 0.00 0.20 0.00 53 1017.7
20260506144723 43 117 1.0 6.0 0.00 0.20 0.00 56 1017.7
20260506143750 42 132 3.0 7.0 0.00 0.20 0.00 55 1017.7
20260506142736 41 144 4.0 7.0 0.00 0.20 0.00 56 1017.7
20260506141725 41 115 3.0 6.0 0.00 0.20 0.00 57 1017.5
20260506140734 41 9 2.0 3.0 0.00 0.20 0.00 57 1017.4
20260506135728 40 5 1.0 3.0 0.00 0.26 0.00 58 1017.2
20260506134735 39 360 1.0 3.0 0.00 0.26 0.00 60 1016.9
20260506133723 39 360 1.0 4.0 0.00 0.26 0.00 60 1016.9
20260506132736 38 304 2.0 5.0 0.00 0.26 0.00 59 1016.7
20260506131724 38 298 1.0 4.0 0.00 0.26 0.00 57 1016.4
20260506130731 38 299 3.0 5.0 0.00 0.26 0.00 55 1016.2
20260506125726 39 360 1.0 5.0 0.00 0.36 0.00 51 1016.0
20260506124756 40 355 3.0 6.0 0.00 0.36 0.00 47 1015.9
20260506123742 40 339 2.0 11.0 0.00 0.36 0.00 47 1015.8
20260506122729 40 16 6.0 11.0 0.00 0.36 0.00 46 1015.6
20260506121737 40 16 5.0 15.0 0.00 0.36 0.00 47 1015.4
20260506120725 40 13 5.0 12.0 0.00 0.36 0.00 46 1015.2
20260506115741 40 360 3.0 6.0 0.00 0.47 0.00 50 1015.2
20260506114749 39 5 3.0 5.0 0.00 0.47 0.00 55 1015.2
20260506113735 40 348 0.0 4.0 0.00 0.47 0.00 57 1015.1
20260506112723 40 346 2.0 3.0 0.00 0.47 0.00 57 1014.9
20260506111733 40 13 1.0 5.0 0.00 0.47 0.00 56 1014.8
20260506110741 41 23 2.0 4.0 0.00 0.47 0.00 56 1014.5
20260506105735 41 11 2.0 4.0 0.00 0.47 0.00 54 1014.5
20260506104744 42 9 1.0 6.0 0.00 0.47 0.00 52 1014.3
20260506103734 42 5 2.0 8.0 0.00 0.47 0.00 52 1014.3
20260506102742 42 10 4.0 8.0 0.00 0.47 0.00 55 1014.0
20260506101731 42 12 2.0 5.0 0.00 0.47 0.00 59 1014.0